Regional Weather Roundup
Issued by NWS

Home | Current Version | Previous Version | Graphics & Text | Print | Product List | Glossary Off
Versions: 1 2 3 4 5 6 7 8 9 10 11 12 13 14 15 16 17 18 19 20 21 22 23 24 25 26 27 28 29 30 31 32 33 34 35 36 37 38 39 40 41 42 43 44 45 46 47 48 49 50

000
ASUS43 KOAX 190310
RWRNE

WEATHER ROUNDUP FOR NEBRASKA
NATIONAL WEATHER SERVICE OMAHA NE
900 PM CST WED JAN 18 2017

NOTES: SATELLITE DATA IS BEING USED TO AUGMENT CLOUD COVER ABOVE
       12000 FEET.
       "FAIR" INDICATES FEW OR NO CLOUDS BELOW 12,000 FEET WITH NO
       SIGNIFICANT WEATHER AND/OR OBSTRUCTIONS TO VISIBILITY.

  * THESE STATIONS DO NOT REPORT WEATHER SUCH AS RAIN...SNOW OR FOG.

NEZ001>004-019>022-054>056-190400-
NEBRASKA PANHANDLE

CITY           SKY/WX    TMP DP  RH WIND       PRES   REMARKS
SCOTTSBLUFF    CLOUDY    32  23  69 CALM      29.69F
ALLIANCE       CLOUDY    28  24  85 S5        29.67F WCI  23
CHADRON        CLOUDY    26  22  84 SW8       29.64F WCI  18
KIMBALL        CLOUDY    30  27  89 W7        29.72S WCI  23
SIDNEY         CLOUDY    30  26  85 W12       29.71F WCI  20
$$

NEZ057>060-069>072-079>082-190400-
SOUTHWEST NEBRASKA

CITY           SKY/WX    TMP DP  RH WIND       PRES   REMARKS
NORTH PLATTE   CLEAR     31  27  85 E5        29.76F WCI  26
IMPERIAL       CLOUDY    29  26  89 SE3       29.74F
LEXINGTON      CLEAR     37  34  88 SE7       29.79F WCI  32
MCCOOK         CLOUDY    35  34  96 S6        29.78F WCI  30
OGALLALA       CLEAR     34  29  83 W5        29.73F WCI  29
$$

NEZ005>010-023>029-035>040-094-190400-
NORTH CENTRAL NEBRASKA

CITY           SKY/WX    TMP DP  RH WIND       PRES   REMARKS
VALENTINE      CLOUDY    34  24  67 SW10      29.68F WCI  26
AINSWORTH      CLEAR     36  28  73 S14       29.70F WCI  27
BROKEN BOW     PTCLDY    35  33  92 CALM      29.76F
O`NEILL        CLEAR     38  36  92 S10       29.75F WCI  31
ORD            CLEAR     37  34  89 S5        29.78F WCI  33
THEDFORD       CLEAR     37  32  84 SW9       29.72F WCI  30
$$

NEZ041-046>049-061>064-073>077-083>087-190400-
SOUTH CENTRAL NEBRASKA

CITY           SKY/WX    TMP DP  RH WIND       PRES   REMARKS
GRAND ISLAND   CLEAR     37  36  96 S10       29.83F WCI  30
AURORA         CLEAR     41  36  81 S9        29.83S
HASTINGS       CLEAR     40  35  83 S6        29.83F
HEBRON         CLEAR     40  34  80 S8        29.88S WCI  34
HOLDREGE       CLEAR     36  33  90 S5        29.80F WCI  32
KEARNEY *      CLEAR     36  34  93 S6        29.81F WCI  31
YORK           MOCLDY    39  36  87 S10       29.84F WCI  32
$$

NEZ011>018-030>034-042>045-190400-
NORTHEAST NEBRASKA

CITY           SKY/WX    TMP DP  RH WIND       PRES   REMARKS
NORFOLK        CLEAR     37  35  92 S7        29.81F WCI  32
ALBION         PTCLDY    37  35  92 S5        29.81F WCI  33
BLAIR          CLEAR     41  36  80 S9        29.87F
FREMONT        CLEAR     38  35  87 CALM      29.88S
TEKAMAH        CLEAR     35  33  92 SE10      29.88S WCI  27
WAYNE          CLEAR     38  36  93 S12       29.82F WCI  30
$$

NEZ050>053-065>068-078-088>093-190400-
SOUTHEAST NEBRASKA

CITY           SKY/WX    TMP DP  RH WIND       PRES   REMARKS
LINCOLN        CLEAR     36  33  89 S8        29.89S WCI  30
OMAHA EPPLEY   PTCLDY    40  34  79 S12       29.89F WCI  33
BEATRICE       CLEAR     40  34  77 SE7       29.90R
FALLS CITY     CLEAR     35  33  92 SE6       29.93F WCI  30
NEBRASKA CITY  CLEAR     38  33  82 S13       29.92S WCI  30
PLATTSMOUTH    CLEAR     40  33  75 SE13      29.89F WCI  33
$$

NEZ044-045-051>053-067-190400-
OMAHA AREA

CITY           SKY/WX    TMP DP  RH WIND       PRES   REMARKS
OMAHA EPPLEY   PTCLDY    40  34  79 S12       29.89F WCI  33
BLAIR          CLEAR     41  36  80 S9        29.87F
FREMONT        CLEAR     38  35  87 CALM      29.88S
MILLARD        CLEAR     41  36  81 SE5       29.89F
OFFUTT AFB     CLEAR     40  39  99 SE9       29.89F WCI  34
PLATTSMOUTH    CLEAR     40  33  75 SE13      29.89F WCI  33
WAHOO          FAIR      35  32  91 S6        29.87S WCI  30
$$



USA.gov is the U.S. government's official web portal to all federal, state and local government web resources and services.